This is the latest recevied weather packets stored in our database for station/object EA5GK-10. If no packets are shown the sender has not sent any weather packets the latest 10 day(s).
| Time | Temp. | Humidity | Pressure | Rain* | Wind** | Luminosity | Snow |
|---|---|---|---|---|---|---|---|
| 1777459831 | 20° C | 53% | 1013 hPa | - | - | - | - |
| 1777458931 | 20° C | 53% | 1013 hPa | - | - | - | - |
| 1777458031 | 20° C | 53% | 1013.2 hPa | - | - | - | - |
| 1777457130 | 20° C | 53% | 1013.2 hPa | - | - | - | - |
| 1777456230 | 20° C | 54% | 1013.1 hPa | - | - | - | - |
| 1777455330 | 20° C | 53% | 1012.9 hPa | - | - | - | - |
| 1777454430 | 20° C | 54% | 1012.9 hPa | - | - | - | - |
| 1777453530 | 20° C | 55% | 1013 hPa | - | - | - | - |
| 1777452630 | 20° C | 55% | 1013 hPa | - | - | - | - |
| 1777451730 | 19.44° C | 55% | 1013.1 hPa | - | - | - | - |
| 1777450830 | 19.44° C | 56% | 1013.1 hPa | - | - | - | - |
| 1777449929 | 19.44° C | 55% | 1013.2 hPa | - | - | - | - |
| 1777449029 | 19.44° C | 56% | 1013.2 hPa | - | - | - | - |
| 1777448129 | 19.44° C | 54% | 1013.2 hPa | - | - | - | - |
| 1777447229 | 18.89° C | 56% | 1013 hPa | - | - | - | - |
| 1777446329 | 18.89° C | 55% | 1012.9 hPa | - | - | - | - |
| 1777445429 | 18.89° C | 55% | 1012.8 hPa | - | - | - | - |
| 1777444529 | 18.89° C | 54% | 1012.7 hPa | - | - | - | - |
| 1777443629 | 20° C | 48% | 1012.5 hPa | - | - | - | - |
| 1777442728 | 20° C | 48% | 1012.1 hPa | - | - | - | - |
| 1777441828 | 20° C | 47% | 1012.1 hPa | - | - | - | - |
| 1777440928 | 20° C | 48% | 1012 hPa | - | - | - | - |
| 1777440028 | 20° C | 48% | 1012 hPa | - | - | - | - |
| 1777439128 | 20° C | 48% | 1011.8 hPa | - | - | - | - |
| 1777438228 | 20° C | 48% | 1011.8 hPa | - | - | - | - |
* Rain since midnight (hover to see other rain measurements)
** Current wind speed in m/s (hover to see current wind gust speed)